Regional Weather Roundup
Issued by NWS Grand Forks, ND

Home | Current Version | Previous Version | Text Only | Print | Product List | Glossary On
Versions: 1 2 3 4 5 6 7 8 9 10 11 12 13 14 15 16 17 18 19 20 21 22 23 24 25 26 27 28 29 30 31 32 33 34 35 36 37 38 39 40 41 42 43 44 45 46 47 48 49 50
000
ASUS43 KFGF 202131
RWRFGF
PRAIRIE TO PINES  WEATHER ROUNDUP
NATIONAL WEATHER SERVICE EASTERN NORTH DAKOTA/GRAND FORKS ND
400 PM CDT WED AUG 20 2014

 **SATELLITE DATA USED TO AUGMENT SKY COVER AT AUTOMATED STATIONS**
 *****  WEATHER ACROSS EASTERN NORTH DAKOTA  *****

CITY           SKY/WX    TMP DP  RH WIND       PRES   REMARKS
GRAND FORKS    PTSUNNY   83  67  58 SE14      29.77F
GRAND FRKS AFB PTSUNNY   83  69  62 SE14      29.78F
GRAND FRKS NWS   N/A     77 N/A N/A SE13        N/A
DEVILS LAKE    CLOUDY    82  64  54 S15       29.74F
FARGO          PTSUNNY   83  67  58 SE13      29.78F
WAHPETON ARPT  MOCLDY    81  63  54 S13       29.79S
$$

 ***** WEATHER ACROSS CENTRAL AND WESTERN NORTH DAKOTA  *****

CITY           SKY/WX    TMP DP  RH WIND       PRES   REMARKS
BISMARCK       LGT RAIN  78  69  73 CALM      29.72S
MINOT          CLOUDY    80  61  52 S14       29.71S
JAMESTOWN      CLOUDY    80  67  64 SE14G22   29.75F
MINOT AFB      CLOUDY    84  63  49 S15       29.70S
GARRISON         N/A     76  66  71 E8        29.73F
WILLISTON      LGT RAIN  72  66  81 SE5       29.73F
DICKINSON      CLOUDY    67  62  84 NE9       29.75R
HETTINGER      TSTM      71  66  84 NW7       29.71R
$$

 *****  OTHER AIRPORT OBSERVATIONS IN OUR AREA  *****

CITY           SKY/WX    TMP DP  RH WIND       PRES   REMARKS
WALHALLA       FAIR      82  68  61 S13G20    29.78R
GRAFTON AIRPOR FAIR      82  66  57 S15       29.77S
VALLEY CITY AR FAIR      82  68  61 S15G23    29.77F
CANDO          FAIR      81  66  61 S7        29.77S
CAVALIER APRT  FAIR      82  68  61 S13G18    29.76F
GWINNER        CLEAR     81  70  69 E10       29.77F
SHEYENNE NWR     N/A     83  67  58 SE13      29.95
ROLLA          FAIR      66  66 100 SE6       29.80F
 ***** THE ABOVE OBSERVATIONS ARE NON NWS ARE NOT QUALITY
       CONTROLLED AND MAY MIS-REPORT RAIN FOR SNOW...
$$

  *****  WEATHER ACROSS NORTHERN MINNESOTA  *****

CITY           SKY/WX    TMP DP  RH WIND       PRES   REMARKS
FLAG ISLAND    MOSUNNY   75  63  64 SE8       29.85F
WARROAD        MOSUNNY   79  66  65 SE7       29.84F
ROSEAU         MOSUNNY   82  64  54 SE9       29.82F
HALLOCK        PTSUNNY   82  64  54 S10G16    29.77F
THF RVR FALLS  MOSUNNY   81  63  54 SE6       29.81F
BAUDETTE       PTSUNNY   78  62  57 E7        29.86F
WASKISH        SUNNY     79  64  61 CALM      29.86S
CROOKSTON      PTSUNNY   82  64  54 S10       29.79F
$$
  *****  WEATHER ACROSS CENTRAL AND WEST MINNESOTA  *****

CITY           SKY/WX    TMP DP  RH WIND       PRES   REMARKS
FOSSTON        PTSUNNY   81  64  57 S7        29.84F
BEMIDJI        PTSUNNY   77  63  61 SE9       29.86S
PARK RAPIDS    PTSUNNY   78  62  57 SE13      29.86S
ELBOW LAKE     FAIR      81  67  61 SE14      29.81S
WADENA         CLOUDY    79  66  65 SE9       29.85S
DETROIT LAKES  CLOUDY    79  64  61 SE10      29.84F
MOORHEAD       PTSUNNY   82  68  61 S12       29.79F
FERGUS FALLS   PTSUNNY   81  64  57 SE10      29.80S
MORRIS MN      MOSUNNY   84  66  54 SE13G18   29.79F
STAPLES        CLOUDY    75  63  64 SE7       29.86S
$$
  *****  WEATHER ELSEWHERE ACROSS MINNESOTA  *****

CITY           SKY/WX    TMP DP  RH WIND       PRES   REMARKS
DULUTH         PTSUNNY   70  57  63 S5        29.91F
INTRNTL FALLS  PTSUNNY   75  58  55 VRB7      29.89R
ELY            SUNNY     73  59  60 NE5       29.91S
CLOQUET        CLOUDY    70  59  68 E5        29.91S
WHEATON        MOSUNNY   79  70  73 SE10      29.80R
BRAINERD       PTSUNNY   75  63  66 VRB5      29.88S
HIBBING        CLOUDY    73  59  61 SW6       29.90R
ALEXANDRIA     PTSUNNY   79  66  64 E13       29.85F
SAINT CLOUD    PTSUNNY   81  64  56 E5        29.85F
MINNEAPOLIS    CLOUDY    82  65  56 SE9       29.85S
$$

  *****  WEATHER ACROSS SOUTH DAKOTA  *****

CITY           SKY/WX    TMP DP  RH WIND       PRES   REMARKS
SIOUX FALLS    PTSUNNY   80  68  66 S14       29.78F
BROOKINGS      NOT AVBL
WATERTOWN      CLOUDY    82  65  56 SE12      29.78S
HURON          CLOUDY    83  68  60 SE13      29.70F
SISSETON         N/A     82  67  60 S12G21    29.76F
ABERDEEN       CLOUDY    82  67  60 SE13      29.73F
MITCHELL       CLOUDY    81  69  67 S15G29    29.72F
PIERRE         PTSUNNY   83  71  67 E13       29.67F
MOBRIDGE       CLOUDY    80  70  71 SE16      29.68S
RAPID CITY     PTSUNNY   85  60  42 SE6       29.72F
$$

  *****  SOME WEATHER IN NEARBY STATES *****

CITY           SKY/WX    TMP DP  RH WIND       PRES   REMARKS
GLASGOW MT     PTSUNNY   76  57  51 W8        29.77S
GREAT FALLS MT LGT RAIN  67  50  54 CALM      29.83F
CHEYENNE WY    PTSUNNY   83  43  24 W20G30    29.98F
SCOTTSBLUFF NE MOSUNNY   90  49  24 W18G24    29.82F
OMAHA NE       MOSUNNY   90  73  57 SE20      29.79F HX  98
DES MOINES IA  CLOUDY    82  70  66 S9        29.85F
DAVENPORT IA   CLOUDY    76  70  82 S15G21    29.90F
CHICAGO IL     PTSUNNY   85  63  47 W13       29.86F
EAU CLAIRE WI  MOSUNNY   78  62  57 VRB3      29.88S
LA CROSSE WI   SUNNY     83  66  56 N3        29.85S
$$

  *****  SOME NATIONAL WEATHER *****

CITY           SKY/WX    TMP DP  RH WIND       PRES   REMARKS
LA GUARDIA NY  MOSUNNY   81  55  40 S8        29.98R
RALEIGH NC     PTSUNNY   90  72  55 SW6       29.98R THUNDER HX  96
ATLANTA GA     CLOUDY    76  70  82 NW10      30.08R
NEW ORLEANS LA CLOUDY    85  73  67 S3        30.05S HX  91
OKLAHOMA CITY  MOSUNNY   94  65  38 S20G25    29.88F HX  96
ALBUQUERQUE NM MOSUNNY   87  43  21 NW14      30.06F
SALT LAKE CITY MOSUNNY   81  48  31 S16       29.96F
LOS ANGELES CA MOSUNNY   77  59  53 W14       29.93S
BOISE ID       MOSUNNY   83  48  29 N8        29.85F
SEATTLE WA     PTSUNNY   66  51  58 SW12      30.00S
$$

*** WEATHER ACROSS MANITOBA...SASKATCHEWAN AND ONTARIO ***
                ***ONTARIO***

CITY           SKY/WX    TMP DP  RH WIND       PRES   REMARKS
GERALDTON      CLOUDY    64  59  82 E6        29.94R
THUNDER BAY    PTSUNNY   70  61  73 E9        29.91R
SIOUX LOOKOUT  MOSUNNY   75  61  60 VRB7      29.89S
TORONTO        PTSUNNY   75  66  73 SE9       29.90R
BIG TROUT LK   SUNNY     79  52  38 SE8       29.90S
PICKLE LAKE    MOSUNNY   79  50  36 SE10G17   29.91S
DRYDEN         CLOUDY    75  61  60 E5        29.89F
KENORA         PTSUNNY   77  59  53 S8        29.88S
$$
                *** MANITOBA***

CITY           SKY/WX    TMP DP  RH WIND       PRES   REMARKS
BRANDON        LGT RAIN  70  63  78 S12       29.72F
DAUPHIN        MOSUNNY   79  64  61 S5        29.69S
ISLAND LAKE    MOSUNNY   84  59  42 SE9       29.80S
PILOT MOUND      N/A     68  64  88 E7          N/A
THE PAS        MOSUNNY   79  66  65 S12       29.61F SMOKE
THOMPSON       PTSUNNY   82  63  51 S15       29.68F
WINNIPEG       PTSUNNY   84  66  54 S14G20    29.78S
LYNN LAKE      LGT RAIN  57  55  94 MISG      29.71R
CHURCHILL      PTSUNNY   55  52  88 NW3       29.83S
GILLAM         PTSUNNY   82  61  47 S6        29.75S
$$
                ***SASKATCHEWAN***

CITY           SKY/WX    TMP DP  RH WIND       PRES   REMARKS
ESTEVAN        CLOUDY    75  64  69 SE6       29.75R
KINDERSLEY     PTSUNNY   73  52  46 NW12G18   29.80S
LLOYDMINSTER   PTSUNNY   66  52  59 NW15G21   29.83R
PRINCE ALBERT  LGT RAIN  64  63  94 NW6       29.71R FOG
REGINA         MOSUNNY   70  66  88 W3        29.72F
YORKTON        SUNNY     79  66  65 W12       29.67R
N. BATTLEFORD  MOSUNNY   72  59  64 NW10G17   29.78R
LA RONGE       CLOUDY    64  61  88 N5        29.75R
SASKATOON      PTSUNNY   72  63  73 NW9       29.74R
SWIFT CURRENT  MOSUNNY   73  54  49 N13G21    29.77R
$$
NOTE: THESE ARE AUTOMATED STATIONS WITH LIMITED QUALITY CONTROL
      "FAIR" INDICATES FEW OR NO CLOUDS BELOW 12,000 FEET WITH NO
      SIGNIFICANT WEATHER AND/OR OBSTRUCTIONS TO VISIBILITY.
      SKY/WX - SKY CONDITION AND SIGNIFICANT WEATHER.
      TMP - AIR TEMPERATURE.    DP   - DEWPOINT TEMPERATURE.
      RH  - RELATIVE HUMIDITY.  PRES - PRESSURE.
      HX  - HEAT INDEX.         WCI  - WIND CHILL INDEX.
$


USA.gov is the U.S. government's official web portal to all federal, state and local government web resources and services.